| time (UTC) | temp F | wind direction | speed MPH | gust MPH | rain 1hr in | rain 24hr in | rain mn in | humidity % | barometer mb |
| 20260504034544 | 40 | 276 | 0.0 | 0.0 | 0.00 | 0.07 | 0.06 | 63 | 1008.8 |
| 20260504034203 | 40 | 276 | 0.0 | 0.0 | 0.00 | 0.07 | 0.06 | 65 | 1007.8 |
| 20260504033702 | 39 | 276 | 0.0 | 0.0 | 0.00 | 0.07 | 0.06 | 68 | 1007.8 |
| 20260504033203 | 40 | 276 | 0.0 | 0.0 | 0.00 | 0.07 | 0.06 | 66 | 1007.9 |
| 20260504033130 | 39 | 276 | 0.0 | 0.0 | 0.00 | 0.07 | 0.06 | 66 | 1008.9 |
| 20260504032702 | 40 | 276 | 0.0 | 0.0 | 0.00 | 0.07 | 0.06 | 64 | 1007.9 |
| 20260504032203 | 40 | 276 | 0.0 | 0.0 | 0.00 | 0.07 | 0.06 | 67 | 1007.8 |
| 20260504031702 | 40 | 276 | 0.0 | 0.0 | 0.00 | 0.07 | 0.06 | 66 | 1007.8 |
| 20260504031522 | 39 | 276 | 0.0 | 0.0 | 0.00 | 0.07 | 0.06 | 66 | 1008.7 |
| 20260504030702 | 40 | 276 | 0.0 | 0.0 | 0.00 | 0.07 | 0.06 | 67 | 1007.7 |
| 20260504030201 | 40 | 276 | 0.0 | 0.0 | 0.00 | 0.07 | 0.06 | 66 | 1007.7 |
| 20260504030112 | 39 | 276 | 0.0 | 0.0 | 0.00 | 0.07 | 0.06 | 66 | 1008.8 |
| 20260504025702 | 40 | 276 | 0.0 | 0.0 | 0.00 | 0.07 | 0.06 | 66 | 1007.7 |
| 20260504024658 | 40 | 276 | 0.0 | 0.0 | 0.00 | 0.07 | 0.06 | 64 | 1007.8 |
| 20260504024505 | 40 | 276 | 0.0 | 0.0 | 0.00 | 0.07 | 0.06 | 64 | 1008.8 |
| 20260504024153 | 40 | 276 | 0.0 | 0.0 | 0.00 | 0.07 | 0.06 | 64 | 1007.8 |
| 20260504023143 | 40 | 276 | 0.0 | 0.0 | 0.00 | 0.07 | 0.06 | 66 | 1007.8 |
| 20260504023056 | 39 | 276 | 0.0 | 0.0 | 0.00 | 0.07 | 0.06 | 66 | 1008.8 |
| 20260504022640 | 40 | 276 | 0.0 | 0.0 | 0.00 | 0.07 | 0.06 | 66 | 1007.7 |
| 20260504021655 | 40 | 276 | 0.0 | 0.0 | 0.00 | 0.07 | 0.06 | 67 | 1008.9 |
| 20260504021637 | 40 | 276 | 0.0 | 0.0 | 0.00 | 0.07 | 0.06 | 67 | 1007.9 |
| 20260504021135 | 41 | 276 | 0.0 | 0.0 | 0.00 | 0.07 | 0.06 | 66 | 1007.8 |
| 20260504020632 | 41 | 276 | 1.0 | 2.0 | 0.00 | 0.07 | 0.06 | 66 | 1007.8 |
| 20260504020131 | 42 | 276 | 1.0 | 2.0 | 0.00 | 0.07 | 0.06 | 63 | 1007.7 |
| 20260504020037 | 41 | 276 | 0.0 | 2.0 | 0.00 | 0.07 | 0.06 | 61 | 1008.7 |
| 20260504015130 | 42 | 276 | 1.0 | 2.0 | 0.00 | 0.07 | 0.06 | 62 | 1007.9 |
| 20260504014633 | 41 | 276 | 0.0 | 3.0 | 0.00 | 0.07 | 0.06 | 64 | 1008.8 |
| 20260504014629 | 42 | 276 | 2.0 | 3.0 | 0.00 | 0.07 | 0.06 | 64 | 1007.8 |
| 20260504014129 | 42 | 276 | 2.0 | 3.0 | 0.00 | 0.07 | 0.06 | 61 | 1007.9 |
| 20260504013630 | 42 | 276 | 1.0 | 3.0 | 0.00 | 0.07 | 0.06 | 61 | 1007.9 |
| 20260504013128 | 42 | 276 | 0.0 | 1.0 | 0.00 | 0.07 | 0.06 | 62 | 1008.0 |
| 20260504013037 | 41 | 276 | 0.0 | 1.0 | 0.00 | 0.07 | 0.06 | 63 | 1008.8 |
| 20260504011627 | 41 | 276 | 0.0 | 3.0 | 0.00 | 0.07 | 0.06 | 62 | 1008.6 |
| 20260504011617 | 42 | 276 | 1.0 | 3.0 | 0.00 | 0.07 | 0.06 | 63 | 1007.7 |
| 20260504011111 | 42 | 276 | 1.0 | 3.0 | 0.00 | 0.07 | 0.06 | 61 | 1007.6 |
| 20260504010606 | 42 | 276 | 1.0 | 6.0 | 0.00 | 0.07 | 0.06 | 62 | 1007.6 |
| 20260504010017 | 42 | 276 | 0.0 | 6.0 | 0.00 | 0.07 | 0.06 | 59 | 1008.5 |
| 20260504005604 | 42 | 276 | 0.0 | 3.0 | 0.00 | 0.07 | 0.06 | 61 | 1007.5 |
| 20260504005105 | 42 | 276 | 0.0 | 1.0 | 0.00 | 0.07 | 0.06 | 61 | 1007.5 |
| 20260504004617 | 41 | 276 | 0.0 | 0.0 | 0.00 | 0.07 | 0.06 | 62 | 1008.4 |
| 20260504004603 | 42 | 276 | 0.0 | 0.0 | 0.00 | 0.07 | 0.06 | 62 | 1007.4 |
| 20260504004103 | 42 | 276 | 0.0 | 0.0 | 0.00 | 0.07 | 0.06 | 60 | 1007.4 |
| 20260504003604 | 42 | 276 | 0.0 | 1.0 | 0.00 | 0.07 | 0.06 | 60 | 1007.3 |
| 20260504003103 | 42 | 276 | 0.0 | 2.0 | 0.00 | 0.07 | 0.06 | 60 | 1007.3 |
| 20260504003014 | 42 | 276 | 0.0 | 2.0 | 0.00 | 0.07 | 0.06 | 59 | 1008.2 |
| 20260504002105 | 42 | 276 | 0.0 | 5.0 | 0.00 | 0.07 | 0.06 | 60 | 1007.3 |
| 20260504001616 | 42 | 276 | 0.0 | 5.0 | 0.00 | 0.07 | 0.06 | 59 | 1008.1 |
| 20260504001604 | 43 | 276 | 0.0 | 5.0 | 0.00 | 0.07 | 0.06 | 59 | 1007.1 |
| 20260504001105 | 43 | 276 | 0.0 | 3.0 | 0.00 | 0.07 | 0.06 | 59 | 1007.2 |
| 20260504000604 | 43 | 276 | 1.0 | 4.0 | 0.00 | 0.07 | 0.06 | 59 | 1007.1 |
| 20260504000104 | 43 | 276 | 1.0 | 4.0 | 0.00 | 0.07 | 0.06 | 57 | 1007.0 |
| 20260504000014 | 43 | 276 | 2.0 | 4.0 | 0.00 | 0.07 | 0.06 | 57 | 1007.9 |
| 20260503235605 | 43 | 276 | 1.0 | 4.0 | 0.00 | 0.07 | 0.06 | 57 | 1007.0 |
| 20260503234610 | 43 | 276 | 0.0 | 3.0 | 0.00 | 0.07 | 0.06 | 56 | 1007.9 |
| 20260503234604 | 44 | 276 | 1.0 | 3.0 | 0.00 | 0.07 | 0.06 | 56 | 1006.9 |
| 20260503234103 | 44 | 276 | 1.0 | 3.0 | 0.00 | 0.07 | 0.06 | 55 | 1006.8 |
| 20260503233104 | 44 | 276 | 1.0 | 8.0 | 0.00 | 0.07 | 0.06 | 54 | 1006.8 |
| 20260503233006 | 44 | 276 | 2.0 | 8.0 | 0.00 | 0.07 | 0.06 | 54 | 1007.7 |
| 20260503232604 | 44 | 276 | 1.0 | 5.0 | 0.00 | 0.07 | 0.06 | 54 | 1006.8 |
| 20260503231104 | 45 | 276 | 1.0 | 5.0 | 0.00 | 0.07 | 0.06 | 52 | 1006.8 |
| 20260503230604 | 45 | 276 | 1.0 | 5.0 | 0.00 | 0.07 | 0.06 | 52 | 1006.7 |
| 20260503230006 | 45 | 276 | 1.0 | 3.0 | 0.00 | 0.07 | 0.06 | 51 | 1007.6 |
| 20260503225605 | 46 | 276 | 1.0 | 4.0 | 0.00 | 0.07 | 0.06 | 50 | 1006.7 |
| 20260503224608 | 47 | 276 | 1.0 | 4.0 | 0.00 | 0.07 | 0.06 | 50 | 1007.6 |
| 20260503224603 | 47 | 276 | 1.0 | 4.0 | 0.00 | 0.07 | 0.06 | 50 | 1006.7 |
| 20260503223605 | 47 | 276 | 2.0 | 9.0 | 0.00 | 0.07 | 0.06 | 47 | 1006.5 |
| 20260503223102 | 47 | 276 | 2.0 | 9.0 | 0.00 | 0.07 | 0.06 | 48 | 1006.5 |
| 20260503223002 | 46 | 276 | 1.0 | 9.0 | 0.00 | 0.07 | 0.06 | 48 | 1007.3 |
| 20260503222608 | 47 | 276 | 1.0 | 5.0 | 0.00 | 0.07 | 0.06 | 47 | 1006.3 |
| 20260503222101 | 48 | 276 | 1.0 | 4.0 | 0.00 | 0.07 | 0.06 | 47 | 1006.3 |
| 20260503221607 | 48 | 276 | 1.0 | 3.0 | 0.00 | 0.07 | 0.06 | 47 | 1007.0 |
| 20260503221602 | 48 | 276 | 1.0 | 6.0 | 0.00 | 0.07 | 0.06 | 47 | 1006.1 |
| 20260503221101 | 49 | 276 | 2.0 | 6.0 | 0.00 | 0.07 | 0.06 | 45 | 1006.1 |
| 20260503220602 | 49 | 276 | 1.0 | 4.0 | 0.00 | 0.07 | 0.06 | 45 | 1006.0 |
| 20260503220002 | 49 | 276 | 0.0 | 4.0 | 0.00 | 0.07 | 0.06 | 45 | 1006.9 |
| 20260503215601 | 50 | 276 | 1.0 | 4.0 | 0.00 | 0.07 | 0.06 | 44 | 1006.1 |
| 20260503214605 | 48 | 276 | 1.0 | 5.0 | 0.00 | 0.07 | 0.06 | 44 | 1006.8 |
| 20260503214600 | 49 | 276 | 2.0 | 5.0 | 0.00 | 0.07 | 0.06 | 44 | 1005.9 |
| 20260503214101 | 48 | 276 | 2.0 | 5.0 | 0.00 | 0.07 | 0.06 | 45 | 1006.2 |
| 20260503213601 | 49 | 276 | 2.0 | 6.0 | 0.00 | 0.07 | 0.06 | 44 | 1006.1 |
| 20260503213101 | 49 | 276 | 2.0 | 6.0 | 0.00 | 0.07 | 0.06 | 44 | 1006.1 |
| 20260503213008 | 49 | 276 | 2.0 | 6.0 | 0.00 | 0.07 | 0.06 | 43 | 1006.9 |
| 20260503212601 | 50 | 276 | 2.0 | 6.0 | 0.00 | 0.07 | 0.06 | 42 | 1005.9 |
| 20260503212102 | 51 | 276 | 2.0 | 6.0 | 0.00 | 0.07 | 0.06 | 40 | 1006.1 |
| 20260503211612 | 51 | 276 | 1.0 | 4.0 | 0.00 | 0.07 | 0.06 | 42 | 1007.0 |
| 20260503211601 | 51 | 276 | 2.0 | 4.0 | 0.00 | 0.07 | 0.06 | 42 | 1006.1 |
| 20260503211101 | 51 | 276 | 2.0 | 8.0 | 0.00 | 0.07 | 0.06 | 43 | 1006.1 |
| 20260503210603 | 51 | 276 | 2.0 | 8.0 | 0.00 | 0.07 | 0.06 | 43 | 1006.1 |
| 20260503210101 | 51 | 276 | 2.0 | 6.0 | 0.00 | 0.07 | 0.06 | 44 | 1006.1 |
| 20260503210002 | 51 | 276 | 2.0 | 6.0 | 0.00 | 0.07 | 0.06 | 41 | 1006.8 |
| 20260503205601 | 52 | 276 | 2.0 | 7.0 | 0.00 | 0.07 | 0.06 | 42 | 1005.9 |
| 20260503204608 | 52 | 276 | 2.0 | 5.0 | 0.00 | 0.07 | 0.06 | 41 | 1006.6 |
| 20260503204602 | 52 | 276 | 2.0 | 5.0 | 0.00 | 0.07 | 0.06 | 41 | 1005.7 |
| 20260503204103 | 53 | 276 | 2.0 | 7.0 | 0.00 | 0.07 | 0.06 | 42 | 1005.8 |
| 20260503203102 | 52 | 276 | 2.0 | 7.0 | 0.00 | 0.07 | 0.06 | 43 | 1005.3 |
| 20260503203002 | 52 | 276 | 1.0 | 7.0 | 0.00 | 0.07 | 0.06 | 43 | 1006.4 |
| 20260503202100 | 53 | 276 | 3.0 | 5.0 | 0.00 | 0.07 | 0.06 | 41 | 1005.6 |
| 20260503201605 | 52 | 276 | 2.0 | 7.0 | 0.00 | 0.07 | 0.06 | 42 | 1006.5 |
| 20260503201601 | 53 | 276 | 3.0 | 7.0 | 0.00 | 0.07 | 0.06 | 42 | 1005.6 |
| 20260503201101 | 53 | 276 | 3.0 | 9.0 | 0.00 | 0.07 | 0.06 | 42 | 1005.8 |
| 20260503200101 | 53 | 276 | 3.0 | 8.0 | 0.00 | 0.07 | 0.06 | 42 | 1005.4 |
| 20260503200003 | 52 | 276 | 2.0 | 6.0 | 0.00 | 0.07 | 0.06 | 41 | 1006.4 |
| 20260503195601 | 52 | 276 | 2.0 | 5.0 | 0.00 | 0.07 | 0.06 | 43 | 1005.4 |
| 20260503195102 | 52 | 276 | 3.0 | 7.0 | 0.00 | 0.07 | 0.06 | 42 | 1005.6 |
| 20260503194101 | 55 | 276 | 2.0 | 7.0 | 0.00 | 0.07 | 0.06 | 40 | 1005.4 |
| 20260503193603 | 55 | 276 | 2.0 | 5.0 | 0.00 | 0.07 | 0.06 | 43 | 1005.4 |
| 20260503193102 | 54 | 276 | 2.0 | 6.0 | 0.00 | 0.07 | 0.06 | 42 | 1005.4 |
| 20260503193003 | 54 | 276 | 2.0 | 6.0 | 0.00 | 0.07 | 0.06 | 42 | 1006.4 |
| 20260503192603 | 54 | 276 | 2.0 | 6.0 | 0.00 | 0.07 | 0.06 | 42 | 1005.3 |
| 20260503192102 | 54 | 276 | 2.0 | 6.0 | 0.00 | 0.07 | 0.06 | 42 | 1005.4 |
| 20260503191609 | 53 | 276 | 2.0 | 6.0 | 0.00 | 0.07 | 0.06 | 45 | 1006.4 |
| 20260503191603 | 54 | 276 | 2.0 | 6.0 | 0.00 | 0.07 | 0.06 | 45 | 1005.4 |
| 20260503191102 | 54 | 276 | 3.0 | 7.0 | 0.00 | 0.07 | 0.06 | 43 | 1005.4 |
| 20260503190601 | 54 | 276 | 2.0 | 12.0 | 0.00 | 0.07 | 0.06 | 45 | 1005.6 |
| 20260503190011 | 53 | 276 | 1.0 | 10.0 | 0.00 | 0.07 | 0.06 | 49 | 1006.8 |
| 20260503185601 | 54 | 276 | 3.0 | 10.0 | 0.00 | 0.07 | 0.06 | 45 | 1005.7 |
| 20260503185103 | 54 | 276 | 2.0 | 7.0 | 0.00 | 0.07 | 0.06 | 47 | 1005.6 |
| 20260503184607 | 53 | 276 | 2.0 | 7.0 | 0.00 | 0.07 | 0.06 | 47 | 1006.7 |
| 20260503184602 | 53 | 276 | 3.0 | 7.0 | 0.00 | 0.07 | 0.06 | 47 | 1005.7 |
| 20260503183601 | 52 | 276 | 2.0 | 6.0 | 0.00 | 0.07 | 0.06 | 48 | 1005.8 |
| 20260503183102 | 51 | 276 | 2.0 | 6.0 | 0.00 | 0.07 | 0.06 | 48 | 1005.7 |
| 20260503183011 | 51 | 276 | 1.0 | 6.0 | 0.00 | 0.07 | 0.06 | 47 | 1006.7 |
| 20260503182602 | 52 | 276 | 2.0 | 5.0 | 0.00 | 0.07 | 0.06 | 50 | 1005.7 |
| 20260503181624 | 50 | 276 | 2.0 | 6.0 | 0.00 | 0.07 | 0.06 | 51 | 1006.7 |
| 20260503181602 | 51 | 276 | 2.0 | 6.0 | 0.00 | 0.07 | 0.06 | 51 | 1005.8 |
| 20260503181102 | 51 | 276 | 2.0 | 9.0 | 0.00 | 0.07 | 0.06 | 52 | 1005.7 |
| 20260503180601 | 51 | 276 | 3.0 | 9.0 | 0.00 | 0.07 | 0.06 | 49 | 1005.7 |
| 20260503180002 | 50 | 276 | 2.0 | 7.0 | 0.00 | 0.07 | 0.06 | 52 | 1006.7 |
| 20260503175601 | 51 | 276 | 2.0 | 10.0 | 0.00 | 0.07 | 0.06 | 51 | 1005.7 |
| 20260503175101 | 50 | 276 | 2.0 | 10.0 | 0.00 | 0.07 | 0.06 | 52 | 1005.6 |
| 20260503174606 | 50 | 276 | 2.0 | 5.0 | 0.00 | 0.07 | 0.06 | 51 | 1006.7 |
| 20260503174601 | 50 | 276 | 2.0 | 5.0 | 0.00 | 0.07 | 0.06 | 51 | 1005.7 |
| 20260503174101 | 50 | 276 | 3.0 | 5.0 | 0.00 | 0.07 | 0.06 | 54 | 1005.4 |
| 20260503173603 | 50 | 276 | 3.0 | 5.0 | 0.00 | 0.07 | 0.06 | 52 | 1005.6 |
| 20260503173201 | 51 | 276 | 3.0 | 5.0 | 0.00 | 0.07 | 0.06 | 51 | 1006.7 |
| 20260503173102 | 51 | 276 | 2.0 | 5.0 | 0.00 | 0.07 | 0.06 | 51 | 1005.6 |
| 20260503172602 | 53 | 276 | 2.0 | 4.0 | 0.00 | 0.07 | 0.06 | 51 | 1005.6 |
| 20260503172102 | 53 | 276 | 2.0 | 6.0 | 0.00 | 0.07 | 0.06 | 55 | 1005.4 |
| 20260503171602 | 52 | 276 | 3.0 | 6.0 | 0.00 | 0.07 | 0.06 | 52 | 1005.4 |
| 20260503171557 | 51 | 276 | 3.0 | 6.0 | 0.00 | 0.07 | 0.06 | 52 | 1006.5 |
| 20260503171102 | 52 | 276 | 3.0 | 7.0 | 0.00 | 0.07 | 0.06 | 53 | 1005.6 |
| 20260503170159 | 51 | 276 | 2.0 | 6.0 | 0.00 | 0.07 | 0.06 | 56 | 1006.7 |
| 20260503160154 | 48 | 276 | 2.0 | 10.0 | 0.00 | 0.07 | 0.06 | 67 | 1007.2 |
| 20260503150601 | 43 | 276 | 2.0 | 4.0 | 0.00 | 0.07 | 0.06 | 84 | 1006.8 |
| 20260503140130 | 39 | 276 | 1.0 | 3.0 | 0.00 | 0.07 | 0.06 | 92 | 1008.6 |
| 20260503131100 | 39 | 276 | 0.0 | 0.0 | 0.01 | 0.07 | 0.06 | 95 | 1007.7 |
| 20260503130602 | 39 | 276 | 0.0 | 0.0 | 0.01 | 0.07 | 0.06 | 95 | 1007.7 |
| 20260503130131 | 38 | 276 | 0.0 | 0.0 | 0.01 | 0.07 | 0.06 | 95 | 1008.9 |
| 20260503120130 | 38 | 276 | 0.0 | 0.0 | 0.02 | 0.06 | 0.05 | 95 | 1009.3 |
| 20260503110548 | 38 | 276 | 0.0 | 0.0 | 0.02 | 0.04 | 0.03 | 95 | 1008.2 |
| 20260503110109 | 38 | 276 | 0.0 | 0.0 | 0.02 | 0.04 | 0.03 | 95 | 1009.3 |
| 20260503081600 | 39 | 276 | 0.0 | 1.0 | 0.00 | 0.01 | 0.00 | 92 | 1009.9 |
| 20260503081529 | 40 | 276 | 0.0 | 1.0 | 0.00 | 0.01 | 0.00 | 92 | 1008.8 |
| 20260503080529 | 40 | 276 | 0.0 | 1.0 | 0.00 | 0.01 | 0.00 | 93 | 1008.9 |
| 20260503080151 | 39 | 276 | 0.0 | 1.0 | 0.00 | 0.01 | 0.00 | 93 | 1010.1 |
| 20260503072529 | 40 | 276 | 0.0 | 0.0 | 0.00 | 0.01 | 0.00 | 93 | 1009.1 |
| 20260503071525 | 39 | 276 | 0.0 | 0.0 | 0.00 | 0.01 | 0.00 | 94 | 1010.5 |
| 20260503071031 | 40 | 276 | 0.0 | 0.0 | 0.00 | 0.01 | 0.00 | 94 | 1009.4 |
| 20260503070529 | 39 | 276 | 0.0 | 0.0 | 0.00 | 0.01 | 0.00 | 94 | 1009.4 |
| 20260503070114 | 39 | 276 | 0.0 | 0.0 | 0.00 | 0.01 | 0.00 | 94 | 1010.5 |
| 20260503060115 | 39 | 276 | 0.0 | 0.0 | 0.00 | 0.01 | 0.01 | 94 | 1011.0 |
| 20260503055023 | 39 | 276 | 0.0 | 0.0 | 0.00 | 0.01 | 0.00 | 94 | 1010.0 |
| 20260503054655 | 39 | 276 | 0.0 | 0.0 | 0.00 | 0.01 | 0.01 | 94 | 1011.1 |
| 20260503054524 | 39 | 276 | 0.0 | 0.0 | 0.00 | 0.01 | 0.00 | 94 | 1010.0 |
| 20260503054023 | 39 | 276 | 0.0 | 0.0 | 0.00 | 0.01 | 0.00 | 94 | 1010.0 |
| 20260503053521 | 39 | 276 | 0.0 | 0.0 | 0.00 | 0.01 | 0.00 | 95 | 1010.1 |
| 20260503053052 | 39 | 276 | 0.0 | 0.0 | 0.00 | 0.01 | 0.01 | 95 | 1011.3 |
| 20260503053018 | 39 | 276 | 0.0 | 0.0 | 0.00 | 0.01 | 0.00 | 95 | 1010.2 |
| 20260503052014 | 39 | 276 | 0.0 | 0.0 | 0.00 | 0.01 | 0.00 | 94 | 1010.4 |
| 20260503051636 | 39 | 276 | 0.0 | 0.0 | 0.00 | 0.01 | 0.01 | 94 | 1011.6 |
| 20260503051513 | 39 | 276 | 0.0 | 0.0 | 0.00 | 0.01 | 0.00 | 94 | 1010.4 |
| 20260503051010 | 39 | 276 | 0.0 | 0.0 | 0.00 | 0.01 | 0.00 | 94 | 1010.5 |
| 20260503050509 | 39 | 276 | 0.0 | 0.0 | 0.00 | 0.01 | 0.00 | 94 | 1010.5 |
| 20260503050033 | 39 | 276 | 0.0 | 1.0 | 0.00 | 0.01 | 0.01 | 94 | 1011.7 |
| 20260503050007 | 39 | 276 | 0.0 | 1.0 | 0.00 | 0.01 | 0.00 | 94 | 1010.6 |
| 20260503045507 | 39 | 276 | 0.0 | 1.0 | 0.01 | 0.01 | 0.00 | 94 | 1010.6 |
| 20260503045004 | 39 | 276 | 0.0 | 1.0 | 0.01 | 0.01 | 0.00 | 94 | 1010.7 |
| 20260503044632 | 39 | 276 | 0.0 | 0.0 | 0.01 | 0.01 | 0.01 | 94 | 1011.9 |
| 20260503044502 | 39 | 276 | 0.0 | 0.0 | 0.01 | 0.01 | 0.00 | 94 | 1010.7 |
| 20260503044003 | 39 | 276 | 0.0 | 0.0 | 0.01 | 0.01 | 0.00 | 94 | 1010.8 |
| 20260503043503 | 39 | 276 | 0.0 | 1.0 | 0.01 | 0.01 | 0.00 | 94 | 1010.9 |
| 20260503043018 | 39 | 276 | 0.0 | 1.0 | 0.01 | 0.01 | 0.01 | 94 | 1012.1 |
| 20260503043001 | 39 | 276 | 0.0 | 1.0 | 0.01 | 0.01 | 0.00 | 94 | 1010.9 |
| 20260503042001 | 40 | 276 | 0.0 | 0.0 | 0.01 | 0.01 | 0.00 | 94 | 1010.9 |
| 20260503041614 | 39 | 276 | 0.0 | 0.0 | 0.01 | 0.01 | 0.01 | 94 | 1012.3 |
| 20260503041501 | 40 | 276 | 0.0 | 0.0 | 0.01 | 0.01 | 0.00 | 94 | 1011.1 |
| 20260503040005 | 40 | 276 | 0.0 | 0.0 | 0.01 | 0.01 | 0.00 | 94 | 1011.1 |
| 20260503035500 | 40 | 276 | 0.0 | 0.0 | 0.00 | 0.00 | 0.00 | 94 | 1011.1 |